GFSGBSN_850_temp_144.txt.gz
Temp
10 9 10 10 10 10 10 10 10 10 10 10 10 10 10 11 11 10 11 11 11 12 13 13 13 14 15 15 17 17 17 17 17 16 17 19 19 20 21 22 23 22 22 22 21 20 20
10 10 9 9 10 10 10 10 10 10 10 10 10 10 10 10 11 11 10 10 11 11 12 13 13 13 13 15 17 16 16 16 16 17 18 18 19 19 19 21 22 22 21 22 22 21 21
9 10 10 9 9 9 9 10 9 9 10 10 10 10 10 10 10 10 10 10 11 11 12 12 13 12 11 14 17 16 15 16 16 17 17 18 18 18 20 20 20 20 20 21 22 21 21
8 9 9 9 9 8 9 9 8 9 10 10 9 10 9 9 10 10 10 10 10 11 11 11 12 12 12 15 16 16 16 16 16 16 16 17 16 17 19 19 19 19 20 19 23 22 19
6 7 7 7 7 9 8 8 9 8 8 9 10 9 9 9 9 9 9 10 10 10 10 11 12 12 14 15 15 16 16 16 16 16 15 16 16 17 19 18 18 20 19 21 21 21 21
4 5 6 6 7 7 7 8 8 8 7 8 9 10 8 9 9 8 9 9 9 10 10 10 10 12 14 16 16 16 16 16 16 16 16 15 16 18 18 18 17 20 20 21 21 21 20
2 2 3 4 6 6 7 6 7 7 7 7 7 8 9 8 8 8 8 8 9 9 9 13 15 14 17 16 16 16 16 15 16 16 16 17 17 17 19 20 21 19 19 20 21 22 19
2 2 3 3 3 4 4 6 6 6 7 7 7 7 8 8 8 7 7 7 8 6 9 12 13 14 15 16 16 16 16 16 16 16 17 18 16 19 20 19 18 19 18 19 21 21 19
2 2 2 2 2 3 3 3 4 5 5 6 6 6 7 6 7 7 7 7 6 7 7 9 13 14 15 16 16 17 16 16 17 16 17 17 19 20 18 18 17 18 18 19 18 18 18
2 2 2 2 2 2 2 3 2 3 4 3 3 4 5 6 6 7 6 7 7 6 6 10 13 14 15 16 16 16 16 16 17 17 18 19 19 17 17 17 18 17 18 17 16 16 17
1 1 2 2 2 2 2 2 2 2 3 3 3 3 3 5 6 6 6 7 6 5 8 15 15 16 16 16 16 16 17 16 17 17 18 18 18 16 16 17 18 17 16 16 16 16 16
1 1 1 1 2 2 2 2 2 2 2 3 3 3 3 3 4 5 6 6 5 5 8 13 16 15 16 16 15 17 16 16 17 17 18 18 18 17 17 18 16 16 14 15 16 16 15
0 0 1 1 1 1 2 2 2 2 2 2 3 3 3 3 4 4 5 4 5 7 10 13 14 15 15 16 15 16 16 16 15 14 15 17 17 17 16 15 15 14 14 14 15 15 15
0 0 0 0 0 1 1 2 2 2 2 2 2 2 3 3 3 4 3 3 6 10 11 15 15 15 15 16 15 16 15 15 16 16 16 15 14 15 15 15 15 14 15 14 14 16 17
-1 -0 -0 0 0 0 1 1 2 2 2 2 2 2 2 2 2 3 3 4 6 10 13 12 14 14 14 15 15 16 15 14 16 17 15 16 16 17 16 15 15 15 13 15 13 14 14
-2 -1 -1 -0 -0 -0 0 1 1 1 2 2 2 2 2 2 2 2 3 5 6 11 13 13 11 13 13 14 15 15 14 16 16 16 17 15 14 15 14 14 14 14 15 12 13 12 13
-2 -2 -1 -1 -0 -1 -0 -0 0 1 1 2 1 2 2 2 2 1 3 5 7 9 12 12 11 12 14 15 16 15 14 15 17 17 16 15 13 13 13 11 13 12 12 13 14 14 13
-2 -2 -1 -1 -1 -1 -0 -0 -0 0 1 1 1 2 2 2 1 0 3 6 8 10 10 11 12 12 12 13 15 14 14 15 15 17 14 14 12 12 12 14 14 15 12 13 11 12 13
-2 -2 -2 -2 -1 -1 -0 -1 -0 -0 1 1 1 1 1 1 2 3 5 7 8 9 10 10 10 12 12 12 12 11 14 15 14 14 13 13 11 10 12 12 12 11 14 13 13 12 10
-3 -2 -2 -2 -1 -1 -1 -0 -1 -0 0 0 1 1 1 1 4 5 6 6 7 8 10 10 11 12 12 11 11 10 11 13 13 13 11 12 10 9 11 12 12 10 11 14 12 10 11
-3 -3 -2 -2 -1 -1 -1 -1 -1 -0 0 -0 1 1 1 1 1 6 7 8 7 7 9 10 9 11 11 10 10 10 11 11 10 9 8 9 8 9 12 13 13 11 11 12 9 10 9
-3 -2 -2 -2 -2 -1 -1 -1 -1 -0 -0 0 0 1 3 6 5 4 7 7 8 9 9 9 9 10 12 10 10 10 10 9 8 8 9 10 9 10 9 12 12 12 12 12 12 11 11
-3 -2 -2 -2 -2 -1 -0 -0 -0 0 -0 0 0 1 4 6 6 3 5 7 8 10 10 10 10 10 11 12 12 12 10 10 10 7 6 7 8 9 8 11 11 9 10 10 6 10 10
-3 -2 -2 -2 -1 -1 -1 -0 -0 -0 -1 -0 -0 1 2 3 7 6 6 7 9 10 10 10 11 11 11 12 11 10 9 8 8 9 8 7 8 9 9 10 7 11 12 12 11 9 10
-2 -1 -1 -1 -1 -1 -1 -2 -2 -1 -1 -1 -1 1 3 4 7 7 7 7 7 9 10 9 10 11 10 7 7 6 6 6 7 9 8 10 8 8 7 8 10 10 10 10 11 10 10
-1 -1 -1 -2 -1 -2 -2 -2 -2 -2 -1 -1 -1 0 1 5 6 8 8 8 7 8 8 9 8 10 10 9 6 5 5 7 6 8 10 10 9 7 7 7 6 10 11 10 11 8 9
-1 -1 -2 -2 -2 -2 -1 -1 -1 -0 -1 -1 -1 -0 1 4 6 8 8 7 8 8 6 6 5 7 9 7 6 4 5 8 6 6 7 6 6 6 6 7 9 10 9 9 7 6 6
-1 -2 -2 -2 -2 -1 -1 -0 1 4 4 -0 -1 -1 2 4 6 7 8 8 8 8 5 4 6 4 4 4 5 6 7 8 7 7 6 5 5 5 7 7 7 9 8 8 6 6 4
-2 -2 -2 -2 -1 -1 -1 -0 1 1 1 1 1 1 3 4 2 4 5 8 8 7 7 5 6 4 4 5 6 7 7 7 7 6 8 5 7 7 8 8 8 8 7 6 7 5 5

GFSGBSN_850_temp_150.txt.gz
Temp
9 9 9 10 10 10 10 10 10 10 9 9 10 10 10 10 11 11 11 11 11 12 12 12 13 13 14 14 17 17 17 17 17 17 17 17 17 18 16 17 18 17 18 19 20 20 20
10 9 9 9 9 9 9 9 9 9 9 9 9 9 9 9 10 10 11 11 11 12 11 12 12 12 13 12 16 16 16 17 17 17 17 17 17 17 18 17 16 18 18 18 19 19 19
9 9 9 9 9 9 9 8 8 8 9 9 9 9 9 9 9 9 10 10 10 11 11 11 11 12 11 14 16 15 15 16 16 16 16 17 16 17 17 15 17 18 17 16 17 19 19
7 7 8 8 8 8 8 8 8 8 7 8 8 9 9 9 9 9 9 10 10 10 11 11 10 11 11 15 15 16 15 16 16 16 16 16 16 16 16 17 16 16 15 15 16 17 18
5 6 6 6 6 7 8 8 8 8 8 8 8 8 9 8 8 8 8 10 10 10 10 10 10 10 11 14 16 16 15 16 16 16 16 16 16 16 16 14 12 13 13 14 15 16 16
2 3 4 5 6 6 6 7 7 8 8 8 8 8 8 8 8 8 8 9 9 10 10 10 10 9 13 15 16 16 16 16 16 16 15 15 15 12 10 11 11 13 13 15 15 16 16
2 2 2 3 4 5 5 6 6 7 7 7 7 7 8 8 8 7 7 8 9 10 9 12 12 13 14 15 15 16 16 15 16 15 12 14 11 10 11 12 13 14 14 14 16 17 16
2 2 2 2 2 2 3 4 4 5 6 6 7 7 7 7 7 6 7 7 8 9 8 11 10 10 13 14 12 15 16 15 15 12 13 12 11 13 13 13 13 13 13 14 16 16 16
2 2 2 2 2 2 2 2 2 3 4 4 5 6 7 7 6 6 6 6 7 7 7 9 11 11 12 13 12 13 14 15 13 12 12 11 13 14 14 13 14 15 14 15 15 14 15
2 2 2 2 2 2 2 2 2 2 2 3 3 4 5 5 5 5 5 6 7 8 7 9 9 11 12 12 13 14 14 15 13 12 12 11 14 14 14 14 14 13 15 15 14 12 12
2 2 2 2 2 1 2 2 2 2 2 2 2 3 3 3 4 4 5 6 7 8 5 11 12 13 13 12 15 14 15 15 13 13 12 12 15 13 13 15 14 14 14 13 13 11 11
1 1 1 1 1 1 1 1 2 2 2 2 2 2 2 2 3 5 5 6 6 4 5 10 13 12 12 12 14 15 13 15 15 13 13 12 15 15 14 14 15 12 12 12 10 9 8
1 1 1 1 1 1 1 1 1 1 2 2 2 2 2 2 3 3 5 5 5 5 9 11 12 13 12 12 13 14 13 13 13 11 11 13 14 14 15 12 12 11 11 9 9 8 9
0 1 1 1 1 1 1 1 1 1 1 2 2 2 2 2 2 3 3 3 4 7 8 12 13 12 12 13 12 13 12 11 13 12 10 11 10 13 13 12 11 11 11 7 9 8 9
-0 0 0 1 0 0 0 1 1 1 1 2 2 2 2 2 2 2 2 3 4 6 9 10 11 10 11 12 13 12 12 12 12 13 10 10 12 14 13 13 13 11 9 11 9 9 8
-0 -0 -0 0 0 0 0 0 0 1 1 1 1 1 2 2 2 2 2 3 3 7 9 9 8 10 10 11 11 12 11 12 13 13 12 12 11 13 13 13 13 11 11 9 7 9 9
-1 -1 -1 -1 -0 -0 -0 0 0 0 1 1 0 0 1 2 1 1 1 2 5 6 8 7 7 8 8 10 11 11 11 12 13 12 13 12 10 11 12 10 10 10 9 10 9 7 8
-1 -1 -2 -1 -1 -1 -1 -0 -0 -0 0 -0 -1 0 1 2 1 1 2 2 5 6 7 6 7 7 8 9 9 10 10 11 14 13 12 10 8 9 10 11 12 11 11 10 6 9 9
-2 -1 -1 -1 -1 -1 -1 -1 -1 -1 -1 -1 -1 -1 0 1 1 1 2 2 4 5 5 6 6 7 8 8 6 7 9 11 12 12 11 10 6 7 10 10 10 10 10 11 9 8 8
-2 -2 -2 -2 -2 -2 -2 -2 -1 -1 -1 -1 -2 -2 -0 1 2 2 2 2 3 5 5 6 7 7 7 6 6 7 9 10 10 8 10 11 7 8 9 9 8 9 10 11 9 7 9
-3 -3 -3 -2 -2 -2 -2 -2 -2 -2 -2 -2 -2 -2 0 -1 1 2 2 3 3 3 5 6 5 6 6 5 6 6 7 7 8 9 7 7 8 8 8 8 8 9 9 10 7 9 8
-3 -3 -3 -3 -3 -2 -2 -2 -2 -2 -2 -3 -2 -2 0 1 0 1 2 2 3 4 5 5 5 7 6 6 6 6 7 6 7 6 6 6 7 6 7 8 8 8 7 8 8 9 10
-4 -4 -3 -3 -3 -3 -2 -2 -2 -2 -2 -3 -2 -1 -2 0 0 0 2 2 3 4 5 5 6 6 5 6 7 8 7 6 7 6 4 5 5 6 6 7 6 4 5 5 7 8 8
-4 -4 -4 -3 -3 -3 -3 -3 -2 -2 -2 -3 -2 -2 -2 -1 -0 0 1 1 3 4 4 6 6 5 7 8 7 6 5 5 5 5 5 3 4 5 4 4 5 8 9 8 9 8 7
-4 -4 -4 -4 -3 -4 -3 -3 -3 -3 -3 -2 -3 -2 -2 -1 -0 0 1 1 1 3 4 4 6 6 7 6 3 3 3 3 4 6 5 5 4 3 3 4 6 7 9 9 9 7 6
-4 -4 -4 -4 -3 -3 -3 -3 -3 -3 -2 -3 -2 -2 -2 -1 -1 1 1 2 1 1 2 4 5 6 6 2 2 4 3 4 3 4 6 6 4 4 3 4 2 5 8 10 9 5 5
-4 -5 -4 -3 -3 -2 -2 -2 -2 -2 -2 -2 -2 -3 -2 -2 -0 1 1 2 3 2 0 3 5 5 6 3 3 3 3 4 3 3 3 3 3 3 3 3 4 6 9 10 7 4 4
-4 -3 -2 -1 -1 -1 -1 -1 -1 -1 -1 -2 -2 -2 -2 -2 -1 0 1 2 3 3 1 3 2 2 1 3 3 2 3 3 3 4 4 4 3 2 3 4 3 7 7 7 4 3 3
-3 -2 -2 -2 -2 -2 -2 -1 -1 -1 -1 -1 -1 -2 -1 -1 0 1 2 2 3 4 4 4 4 2 3 3 2 2 2 -0 2 2 4 3 2 3 4 3 4 6 5 4 3 2 1

GFSGBSN_850_temp_153.txt.gz
Temp
9 9 9 9 10 10 10 10 10 10 10 10 9 9 9 10 10 10 10 11 11 11 12 12 13 14 14 15 16 16 17 17 17 17 17 17 17 17 16 16 17 15 17 18 18 19 19
10 9 9 9 9 9 10 10 10 10 9 9 9 9 9 9 9 9 10 10 11 11 11 12 12 12 12 12 16 16 16 16 16 16 16 16 16 16 16 16 15 17 17 17 19 18 18
10 9 9 9 9 9 9 9 9 9 9 9 9 9 9 9 9 9 9 10 11 11 10 11 11 11 11 14 16 15 16 16 16 16 16 16 16 16 16 15 16 17 15 15 16 18 16
8 8 8 9 9 9 9 9 8 9 9 8 7 8 8 9 9 9 9 10 11 11 10 11 11 10 11 15 15 15 15 16 16 16 16 16 16 16 16 16 15 15 14 14 16 16 18
6 6 7 7 8 8 8 8 8 8 8 8 8 8 8 8 9 9 9 9 9 9 9 10 10 10 11 14 15 16 16 15 16 16 16 16 15 15 15 12 11 11 12 13 14 15 16
2 3 3 4 5 6 7 7 8 8 8 8 8 8 8 8 8 8 8 7 8 9 9 10 9 10 13 14 15 15 16 15 15 15 15 15 15 11 9 10 11 12 12 13 13 15 14
2 2 2 2 3 4 5 6 6 7 7 7 7 7 8 8 8 7 7 6 8 9 8 11 12 13 13 14 15 15 15 15 15 15 12 14 11 10 10 11 13 13 13 13 12 14 15
2 2 2 2 2 2 3 3 5 5 6 6 7 7 7 7 7 7 5 6 8 8 8 10 10 10 13 12 11 15 15 15 14 12 12 11 10 12 12 12 12 12 12 11 12 14 14
2 2 2 2 2 2 2 2 2 3 4 5 6 6 7 7 6 6 5 6 7 8 8 9 10 10 12 13 11 12 14 15 13 11 11 10 12 12 12 12 12 11 11 12 14 14 14
3 2 2 2 2 2 2 2 2 2 2 3 4 5 5 6 5 5 4 5 7 8 5 7 8 10 10 12 11 13 14 14 12 12 11 10 13 12 12 12 12 11 12 14 13 12 11
2 2 2 2 2 2 2 2 2 2 2 2 3 3 3 4 4 4 5 5 7 8 3 10 10 12 11 12 13 13 14 13 13 11 12 11 12 11 11 12 12 12 12 12 13 10 10
2 2 2 2 2 2 1 1 2 2 2 2 2 2 2 2 3 5 5 5 7 4 2 9 12 10 10 11 12 14 12 13 14 12 11 12 14 13 12 13 12 12 12 10 8 9 9
1 1 2 2 2 1 1 1 1 1 2 2 2 2 2 2 3 4 5 5 5 3 8 10 11 11 11 10 11 13 12 11 11 10 11 12 12 13 14 13 12 12 11 10 10 9 10
1 1 1 1 1 1 1 1 1 1 1 1 2 2 2 2 3 3 4 3 3 5 7 10 10 10 10 11 11 11 11 10 12 11 9 10 10 12 12 13 11 10 11 8 10 9 9
1 0 0 0 1 1 1 1 1 1 1 1 1 1 1 2 2 3 3 4 4 4 8 9 9 9 9 10 11 11 10 10 11 12 10 9 10 13 13 12 13 10 10 11 9 9 8
-0 -0 -0 -0 1 0 1 1 1 1 1 1 1 1 1 2 2 2 2 3 3 6 7 7 7 8 8 10 10 10 10 11 12 12 11 11 10 12 13 13 12 11 10 9 7 9 9
-1 -0 -0 -1 -1 -0 0 0 -0 1 0 0 0 -0 1 2 1 1 1 1 4 6 6 7 6 7 8 9 9 9 10 11 12 11 11 12 10 11 12 10 10 9 8 9 9 8 9
-2 -1 -0 -1 -1 -1 -0 -0 -0 -0 -0 -1 -1 -1 0 2 0 0 1 2 4 5 5 5 6 6 7 8 8 9 9 10 10 12 10 10 8 9 10 11 11 11 10 9 6 8 8
-2 -1 -1 -1 -1 -1 -2 -0 -0 -0 -1 -1 -1 -1 0 0 0 1 2 2 3 4 4 4 5 6 7 6 5 7 8 10 9 8 9 9 7 6 9 9 9 10 10 10 8 8 8
-2 -2 -2 -2 -2 -2 -2 -2 -1 -1 -1 -1 -1 -2 -1 0 1 1 1 2 2 4 4 5 5 6 5 5 5 5 7 9 8 9 9 8 6 8 8 9 8 8 10 10 6 5 9
-2 -2 -2 -2 -2 -2 -2 -1 -1 -1 -1 -2 -2 -1 -1 -2 -1 0 2 3 2 2 4 4 4 4 4 3 4 5 6 7 8 9 8 6 5 6 9 10 9 8 9 8 5 8 6
-3 -3 -3 -2 -2 -2 -2 -2 -2 -2 -1 -3 -2 -2 -2 -1 1 0 -0 1 2 3 3 3 4 5 4 4 5 5 6 5 6 5 5 5 4 5 7 8 8 9 8 7 7 8 8
-3 -3 -3 -3 -3 -3 -2 -2 -2 -2 -2 -3 -3 -2 -1 -0 -1 -2 0 1 2 3 4 4 4 4 3 5 6 7 7 6 5 4 3 4 4 4 6 8 6 5 6 6 6 8 8
-3 -3 -3 -3 -4 -3 -3 -2 -2 -2 -2 -3 -3 -3 -2 -2 -1 -1 0 1 1 2 2 4 4 3 5 6 6 5 4 4 4 3 5 3 3 4 5 4 5 7 8 8 7 7 8
-3 -3 -3 -4 -4 -3 -3 -3 -3 -3 -2 -3 -3 -3 -2 -2 -1 -0 -1 -0 1 1 -0 2 4 5 4 6 1 -1 0 2 4 4 3 5 4 3 4 5 5 6 8 7 7 6 7
-4 -4 -4 -3 -3 -3 -3 -3 -3 -3 -3 -3 -3 -3 -3 -2 -2 -0 -0 0 -0 1 1 -0 2 3 4 1 -0 2 2 3 3 4 4 5 5 5 3 4 3 5 7 9 9 6 5
-4 -4 -3 -3 -4 -4 -3 -3 -3 -3 -3 -3 -3 -3 -3 -3 -2 -0 -1 -1 0 1 1 1 2 3 4 -1 2 3 3 3 3 3 3 3 3 4 3 3 3 5 6 9 6 5 4
-3 -4 -4 -4 -4 -4 -3 -3 -3 -2 -3 -3 -3 -3 -3 -2 -2 -1 -0 -0 1 1 0 1 1 1 -0 1 1 2 2 2 2 3 3 3 3 3 3 4 4 6 7 6 4 2 2
-4 -4 -4 -3 -3 -2 -2 -1 -2 -2 -2 -3 -3 -3 -3 -2 -2 -0 -0 0 1 1 2 2 3 2 3 -0 0 1 2 1 2 2 3 3 2 3 3 2 4 5 5 4 4 2 1

GFSGBSN_850_temp_156.txt.gz
Temp
9 9 9 9 9 9 10 10 10 10 9 9 9 9 9 9 9 10 10 11 11 11 11 12 12 13 13 14 16 16 17 17 17 17 17 17 16 16 15 15 16 16 16 17 17 18 18
9 9 9 9 9 9 9 9 10 10 9 9 9 9 9 9 9 9 9 9 11 11 11 11 12 12 11 11 15 16 16 17 16 16 16 16 16 16 15 15 15 15 16 16 17 17 17
8 8 9 9 9 8 9 9 9 9 9 9 9 9 9 9 9 9 9 9 9 10 11 11 11 12 10 13 15 14 15 16 16 16 16 16 16 16 16 14 15 16 15 13 16 17 15
6 6 7 8 9 8 8 9 9 9 9 9 9 8 7 7 8 8 9 9 9 10 10 10 11 11 10 14 15 15 15 15 15 16 16 15 16 15 15 15 14 14 13 13 15 15 16
3 3 5 7 7 7 8 8 8 8 8 8 8 8 8 8 8 8 8 8 9 9 9 9 10 10 10 13 14 15 15 15 15 15 15 15 15 15 14 11 11 10 12 13 14 14 15
2 2 2 3 4 5 6 6 7 7 8 8 8 8 8 8 8 8 8 8 9 9 8 8 9 9 12 14 14 14 15 15 15 15 15 15 14 10 9 10 11 12 12 12 13 15 14
2 2 2 2 2 2 3 5 5 6 7 7 7 8 8 8 8 7 7 7 8 8 7 10 11 12 13 14 13 14 14 15 14 15 12 13 11 10 10 10 12 13 12 12 12 12 14
2 2 2 2 2 2 2 2 3 4 5 6 7 7 7 7 7 7 6 7 7 7 6 9 9 10 12 12 11 14 14 14 14 12 11 11 10 11 11 10 11 11 11 10 11 11 12
2 2 2 2 2 2 2 2 2 2 3 4 5 6 6 7 7 6 6 6 7 7 6 8 10 10 11 12 10 12 13 14 13 10 10 9 12 12 11 11 11 10 10 10 11 12 13
3 3 2 2 2 2 2 2 2 2 2 2 3 4 4 6 6 6 6 6 6 7 4 6 8 9 9 10 10 12 13 14 12 11 11 10 12 12 11 11 10 10 10 11 12 12 10
3 3 3 2 2 2 2 2 2 2 2 2 2 3 3 4 4 5 5 5 6 6 3 9 9 10 11 10 12 12 12 12 12 11 12 11 11 10 10 11 11 10 11 11 11 10 10
2 2 2 2 2 2 2 2 2 2 2 2 2 2 2 3 4 5 5 6 6 4 3 9 10 9 9 10 11 12 11 12 13 11 11 12 13 11 11 12 11 11 11 10 7 8 9
2 2 2 2 2 2 2 2 2 1 2 2 2 2 2 2 3 4 5 5 5 3 8 9 10 10 10 9 10 12 11 10 10 10 10 11 11 12 13 13 11 12 11 10 10 9 9
2 2 2 2 2 2 1 1 1 1 1 1 1 1 2 2 3 3 4 3 4 5 6 9 9 9 9 11 10 10 10 10 10 11 9 9 9 11 11 13 11 10 10 7 9 9 9
1 1 1 1 2 1 1 1 1 1 1 1 1 1 1 2 2 2 3 4 3 4 7 8 9 9 8 10 10 11 10 9 10 10 10 9 9 12 12 13 13 10 9 11 9 8 7
0 0 0 1 1 1 1 0 0 0 0 1 1 0 1 2 2 2 2 4 4 5 6 6 7 8 7 9 9 10 10 11 11 11 11 11 10 12 12 12 11 10 10 9 8 10 10
-0 -0 -0 0 0 1 0 0 0 -0 0 0 -0 -0 1 2 1 1 1 2 4 5 5 5 6 6 7 7 8 9 9 10 10 11 10 10 8 10 11 10 9 9 8 10 10 9 11
-0 -1 -1 -0 -0 -0 0 -0 0 0 0 -1 -1 -1 1 1 0 0 1 1 4 4 5 4 4 5 6 6 6 8 8 9 9 9 10 9 7 6 9 10 10 10 10 10 9 9 8
-1 -2 -1 -1 -0 -0 -0 -1 -1 0 -1 -1 -1 -1 0 0 0 0 1 2 2 3 3 4 4 5 6 6 5 6 7 9 10 8 7 7 5 6 7 9 9 9 10 10 8 7 9
-2 -2 -2 -1 -1 -1 -1 -1 -1 -0 -1 -1 -2 -2 -1 -0 1 1 1 1 1 3 3 3 4 4 4 4 5 4 6 8 7 8 8 7 5 5 6 7 8 8 9 9 7 6 10
-2 -2 -2 -2 -2 -1 -1 -1 -1 -2 -2 -2 -2 -2 -1 -1 -1 -0 1 2 1 1 3 3 3 3 3 3 3 4 5 5 6 7 7 5 5 5 5 6 8 8 9 10 7 9 7
-3 -3 -3 -2 -2 -2 -2 -1 -2 -2 -2 -3 -2 -2 -3 -1 -0 -1 -0 0 1 2 2 2 2 3 3 3 4 3 4 4 4 5 5 3 3 4 4 7 8 7 6 7 7 8 9
-3 -3 -2 -2 -3 -2 -2 -2 -2 -2 -3 -3 -3 -2 -2 -1 -2 -2 -1 0 0 2 3 3 3 3 2 3 4 5 5 5 5 4 3 4 4 3 6 6 6 5 5 5 4 7 7
-3 -3 -3 -3 -3 -2 -2 -2 -2 -3 -3 -3 -3 -3 -2 -2 -1 -1 -1 -0 0 1 1 2 3 2 4 4 4 4 4 4 3 3 4 2 2 4 5 5 6 7 8 7 8 8 8
-3 -3 -3 -3 -3 -3 -2 -2 -2 -2 -2 -3 -3 -3 -3 -2 -1 -1 -1 0 -0 0 0 0 -0 0 1 2 2 1 -1 1 4 3 2 3 3 2 5 5 5 6 7 6 6 6 7
-3 -3 -3 -3 -3 -3 -3 -3 -3 -3 -3 -3 -3 -3 -3 -3 -2 -1 -0 -0 -3 -4 -3 0 1 1 0 0 0 1 2 3 3 4 3 3 3 4 3 4 4 5 6 8 7 4 5
-3 -3 -3 -3 -3 -3 -3 -3 -3 -3 -3 -3 -3 -3 -3 -3 -2 -1 -2 -2 -1 -1 -3 1 1 0 1 1 1 2 1 3 3 4 3 2 3 4 4 4 4 5 5 7 6 4 4
-3 -4 -4 -3 -3 -3 -3 -3 -3 -3 -3 -3 -3 -3 -4 -3 -3 -2 -1 -1 -0 -1 -1 0 0 -0 -1 0 1 1 0 2 2 3 2 3 2 3 4 4 4 5 7 6 4 2 2
-4 -4 -3 -3 -4 -4 -4 -4 -4 -4 -4 -4 -4 -4 -4 -3 -3 -2 -1 -1 -1 0 0 1 1 1 0 -0 -1 -1 0 -1 1 2 2 2 2 2 3 3 3 4 4 4 4 1 -0